Showing default

MAUVE, 66756

Orbit data source: Space-Track

MAUVE, 66756 is a Hungarian payload satellite in SSO that was launched on Fri, 28 Nov 2025 UTC via an FALCON 9 launch vehicle from the Air Force Western Test Range (AFWTR). Payload-class satellites include a variety of spacecraft equipped with specific instruments for various scientific and technological missions. These include communications satellites like Starlink; space stations such as the ISS; scientific satellites like the Hubble; Earth observation satellites from companies like Planet Labs, Umbra, and HawkEye 360; GPS; miniature CubeSats for education and research; and military/defense satellites.

Loading next visibility...
Identifier
66756, 2025-276CU
Orbit
SSO
Country
Flag of HUHU / HUN
Related business
Manufacturer
C3S
Mission
Operational spacecraft
Bus & Motor
CUBESAT 16U, Unknown motor
Mass
24 kg wet, 24 kg dry
Launch date (UTC)
2025-11-28 (2 months ago)
Launch vehicle
FALCON 9
Launch site
Air Force Western Test Range (AFWTR)
Object type
Payload
Rocket body
Debris
Shape & HBR
Unknown
Radar Cross Section
RCS unknown

Expand to show TLE details & history
Last TLE update: 17 hours ago

TLE from 17 hours ago
0 MAUVE
1 66756U 25276CU  26034.46178645  .00008443  00000-0  41106-3 0  9992
2 66756  97.4349 110.3588 0003018  77.5320 282.6252 15.18614212 10122
Epoch: 2026-02-03T11:04Z
TLE epoch observation values (Epoch: 2026-02-03T11:04:58.349Z)
Latitude
0.00001°
Longitude
170.4733°
Altitude
512.662 km
Speed
7.608 km/s
True Right ascension
07h 21m 26s
True Declination
0° 00' 00"
Sunlit
Object was in full shadow at epoch
Visualization orbit readout
Latitude
Unknown
Longitude
Unknown
Altitude
Unknown
Speed
Unknown
Apparent Right ascension
Unknown
Apparent Declination
Unknown
Sunlit
N/A
Visualization observer readout
Local Sidereal Time
05:37:30
Azimuth
Unknown
Elevation
Unknown
Doppler factor
Unknown
Orbital elements
Apogee altitude
509.075 km
Perigee altitude
504.919 km
Semi-major axis
6,885.134 km
Eccentricity
0.0003
Inclination
97.4349°
RAAN
110.3588°
Arg. of periapsis
77.532°
True anomaly
282.59145°
Mean anomaly
282.6252°
Eccentric anomaly
282.60833°
Mean motion
3.79905 °/min
Orbital period
94.76 mins
BSTAR
0.00041106
Loading maneuver chart data...
Computing Atmospheric mass density...
Loading historical data...
Loading historical data...
Loading historical data...
Loading historical data...
Loading historical data...
Loading historical data...
Loading historical data...

Documentation

Showing up to 5 results
|